STARLINK-32465, 61716

Orbit data source: Space-Track

STARLINK-32465, 61716 is a payload satellite owned by SpaceX/Seattle (US) in LEO that was launched on Wed, 30 Oct 2024 UTC via an FALCON 9 launch vehicle from the Air Force Eastern Test Range (AFETR). Payload-class satellites include a variety of spacecraft equipped with specific instruments for various scientific and technological missions. These include communications satellites like Starlink; space stations such as the ISS; scientific satellites like the Hubble; Earth observation satellites from companies like Planet Labs, Umbra, and HawkEye 360; GPS; miniature CubeSats for education and research; and military/defense satellites.

Loading next visibility...
Identifier
61716, 2024-196K
Orbit
LEO
Country
Flag of USUS
Related business
Manufacturer
SpaceX/Seattle
Mission
Operational Commercial Communications
Bus & Motor
STARLINK V2M, Unknown motor
Mass
730 kg wet, ~700 kg dry
Launch date (UTC)
2024-10-30 (2 years ago)
Launch vehicle
FALCON 9
Launch site
Air Force Eastern Test Range (AFETR)
Object type
Payload
Rocket body
Debris
Shape & HBR
Box + 2 Pan, 17.7 m
Radar Cross Section
33.884 m², Large (>1 m²)

Expand to show TLE details & history
Last TLE update: 9 hours ago

TLE from 9 hours ago
0 STARLINK-32465
1 61716U 24196K   26171.46777250 -.00001737  00000-0 -40304-4 0  9993
2 61716  53.1618 343.8635 0000831  50.4069 309.7007 15.34397872 92898
Epoch: 2026-06-20T11:13Z
TLE epoch observation values (Epoch: 2026-06-20T11:13:35.543Z)
Latitude
0.00001°
Longitude
-93.21656°
Altitude
463.248 km
Speed
7.636 km/s
True Right ascension
22h 55m 27s
True Declination
0° 00' 00"
Sunlit
Object was in daylight at epoch
Visualization orbit readout
Latitude
Unknown
Longitude
Unknown
Altitude
Unknown
Speed
Unknown
Apparent Right ascension
Unknown
Apparent Declination
Unknown
Sunlit
N/A
Visualization observer readout
Local Sidereal Time
07:22:00
Azimuth
Unknown
Elevation
Unknown
Doppler factor
Unknown
Orbital elements
Apogee altitude
463.535 km
Perigee altitude
462.398 km
Semi-major axis
6,841.103 km
Eccentricity
0.00008
Inclination
53.1618°
RAAN
343.8635°
Arg. of periapsis
50.4069°
True anomaly
309.69337°
Mean anomaly
309.7007°
Eccentric anomaly
309.69704°
Mean motion
3.83578 °/min
Orbital period
93.85 mins
BSTAR
-0.000040304
Loading maneuver chart data...
Computing Atmospheric mass density...
Loading historical data...
Loading historical data...
Loading historical data...
Loading historical data...
Loading historical data...
Loading historical data...
Loading historical data...

Documentation

Showing up to 5 results
|